Regional Weather Roundup
Issued by NWS

Home | Current Version | Previous Version | Graphics & Text | Print | Product List | Glossary On
Versions: 1 2 3 4 5 6 7 8 9 10 11 12 13 14 15 16 17 18 19 20 21 22 23 24 25 26 27 28 29 30 31 32 33 34 35 36 37 38 39 40 41 42 43 44 45 46 47 48 49 50
000
ASUS45 KBOU 121110
RWRCO

WEATHER ROUNDUP FOR COLORADO
NATIONAL WEATHER SERVICE DENVER/BOULDER CO
500 AM MDT SAT JUL 12 2014

NOTE: "FAIR" INDICATES FEW OR NO CLOUDS BELOW 12000 FEET WITH NO
SIGNIFICANT WEATHER AND/OR OBSTRUCTIONS TO VISIBILITY.

COZ001>005-013-030-031-121200-
...NORTHWEST COLORADO...

CITY           SKY/WX    TMP DP  RH WIND       PRES   REMARKS
CRAIG          PTCLDY    56  56 100 SE9       30.28S
HAYDEN         MOCLDY    57  54  88 SE14      30.30R
MEEKER         MOCLDY    59  51  75 NE5       30.28R
MOUNT WERNER   NOT AVBL
STEAMBOAT SPGS CLOUDY    56  55  95 NE17      30.31F
WALDEN         CLOUDY    54  52  94 S3        30.42R
$$

COZ006>008-011-121200-
...WEST CENTRAL VALLEYS...

CITY           SKY/WX    TMP DP  RH WIND       PRES   REMARKS
GRAND JUNCTION PTCLDY    70  51  51 CALM      30.14R
MONTROSE       PTCLDY    66  53  63 E6        30.24S
EAGLE          PTCLDY    59  57  94 CALM      30.34S
RIFLE          PTCLDY    59  57  93 CALM      30.24R
DELTA          MOCLDY    67  56  65 E7        30.19S
NUCLA          PTCLDY    66  46  48 E6        30.28S
$$

COZ017>023-064>068-121200-
...SOUTHWEST COLORADO...

CITY           SKY/WX    TMP DP  RH WIND       PRES   REMARKS
DURANGO        CLOUDY    58  57  97 S5        30.31R
CORTEZ         CLEAR     64  55  72 E5        30.25S
PAGOSA SPRINGS CLOUDY    56  55  95 CALM      30.39S
TELLURIDE      MOCLDY    55  48  76 E5        30.47R
WOLF CREEK PAS NOT AVBL
$$

COZ009-010-012-014-032>034-037-058>063-121200-
...CENTRAL COLORADO...

CITY           SKY/WX    TMP DP  RH WIND       PRES   REMARKS
ASPEN          PTCLDY    54  49  83 S5        30.37R
BUENA VISTA    CLOUDY    57  47  70 CALM      30.40R
COPPER MTN     MOCLDY    54  41  62 S9        30.67R
BERTHOUD PASS  FAIR      43  30  61 NW17      30.69R
COTTONWOOD PAS CLOUDY    59  43  55 W6        30.51R
GUNNISON       MOCLDY    54  48  82 E5        30.42S
KREMMLING      PTCLDY    54  50  87 CALM      30.40R
LEADVILLE      MOCLDY    45  44  97 E5        30.52R
MONARCH PASS   CLOUDY    46  41  81 W15       30.77R
SALIDA         CLOUDY   N/A N/A N/A CALM      30.44S
SUNLIGHT       PTCLDY    50  45  81 CALM      30.59S
WILKERSON PASS PTCLDY    48  43  81 W6        30.64S
$$

COZ069>075-121200-
...SAN LUIS VALLEY/SANGRE DE CRISTO MOUNTAINS...

CITY           SKY/WX    TMP DP  RH WIND       PRES   REMARKS
ALAMOSA        CLEAR     49  46  90 SE5       30.37R
LA VETA PASS   NOT AVBL
SAGUACHE       NOT AVBL
$$

COZ035-036-038>040-121200-
...NORTHERN COLORADO FRONT RANGE...

CITY           SKY/WX    TMP DP  RH WIND       PRES   REMARKS
DENVER INTL AP PTCLDY    62  60  93 SW3       30.20F
DMNS CITY PARK   N/A     62  60  92 E5        30.19F
AURORA         PTCLDY    61  61 100 S7        30.23S
FRONT RANGE AP NOT AVBL
ERIE MUNI ARPT PTCLDY    61  59  92 N3        30.18F
BOULDER MUN AP PTCLDY    63  61  94 CALM      30.18F
CENTENNIAL     PTCLDY    61  59  93 S6        30.24S
BROOMFIELD     PTCLDY    63  59  88 SE7       30.20F
FORT COLLINS   PTCLDY    63  61  94 S7        30.19F
LONGMONT       PTCLDY    64  62  92 CALM      30.20S
$$

COZ041-046-047-076>085-087-088-121200-
...PIKES PEAK/PALMER DIVIDE AND SOUTHERN FOOTHILLS...

CITY           SKY/WX    TMP DP  RH WIND       PRES   REMARKS
COLO. SPRINGS  MOCLDY    63  57  81 NW8       30.26F
A. F. ACADEMY  PTCLDY    59  58  97 N9        30.29S
ELLICOTT       PTCLDY    61  58  90 N8        30.25
FALCON         PTCLDY    60  57  89 NW9       30.31S
FORT CARSON    MOCLDY    63  58  83 N10       30.23F
LIMON          PTCLDY    60  60 100 NW5       30.21R
MONUMENT HILL  MOCLDY    57  55  94 W5        30.32F FOG
TRINIDAD       CLEAR     63  49  60 SW10      30.21R
$$

COZ042>045-048>051-090-091-121200-
...NORTHEAST COLORADO...

CITY           SKY/WX    TMP DP  RH WIND       PRES   REMARKS
GREELEY ARPT   NOT AVBL
AKRON          FOG       64  63  96 NW7       30.17R VSB 1/4
BURLINGTON     MOCLDY    66  61  84 N10       30.10F
WRAY           CLOUDY    69  69 100 N3        30.09F
STERLING       CLOUDY    68  64  88 CALM      30.13S
HOLYOKE        CLOUDY    68  63  83 NW7       30.10R
FORT MORGAN    MOCLDY    64  61  89 N6        30.18R
$$

COZ086-089-092>099-121200-
...SOUTHEAST COLORADO...

CITY           SKY/WX    TMP DP  RH WIND       PRES   REMARKS
PUEBLO         CLEAR     66  60  81 W9        30.16R
LA JUNTA       CLEAR     68  59  73 NW8       30.11R
LAMAR          CLEAR     68  58  70 W7        30.05R
SPRINGFIELD      N/A     68  55  63 S12       30.12S
$$


USA.gov is the U.S. government's official web portal to all federal, state and local government web resources and services.